Location: Monteux
(44.0348°N, 4.9972°E)
Time: 14:06:41
(UTC+00:00)

Cosmos 1782 - Pass Details

Date: 30 November 2020
Orbit: 537 x 551 km, 82.5° (Epoch: 27 January)

Event Time Altitude Azimuth Distance (km) Brightness Sun altitude
Rises 18:00:14 0° 204° (SSW) 2,681 6.8 -20.4°
Reaches altitude 10° 18:02:27 10° 212° (SSW) 1,797 6.0 -20.8°
Maximum altitude 18:06:12 41° 283° (WNW) 802 4.1 -21.5°
Drops below altitude 10° 18:09:59 10° 354° (N) 1,819 5.4 -22.2°
Enters shadow 18:10:20 - 356° (N) 1,952 5.6 -22.2°
